TimeCET,TemperatureF,Dew PointF,Humidity,Sea Level PressureIn,VisibilityMPH,Wind Direction,Wind SpeedMPH,Gust SpeedMPH,PrecipitationIn,Events,Conditions,WindDirDegrees,DateUTC
12:00 AM,35.6,33.8,93,29.98,-9999.0,East,4.6,-,N/A,,Clear,100,2012-11-09 23:00:00
12:30 AM,35.6,33.8,93,29.98,-9999.0,Variable,2.3,-,N/A,,Clear,0,2012-11-09 23:30:00
1:00 AM,35,33,90,30.02,9,East,6.7,,,,Clear,100,2012-11-10 00:00:00
1:00 AM,35.6,33.8,93,29.98,-9999.0,East,4.6,-,N/A,,Clear,90,2012-11-10 00:00:00
1:30 AM,33.8,32.0,93,29.95,-9999.0,East,9.2,-,N/A,,Clear,90,2012-11-10 00:30:00
2:00 AM,33.8,32.0,93,29.95,5.0,Variable,2.3,-,N/A,,Unknown,0,2012-11-10 01:00:00
2:30 AM,33.8,32.0,93,29.95,5.0,ESE,4.6,-,N/A,,Unknown,120,2012-11-10 01:30:00
3:00 AM,33.8,32.0,93,29.95,5.6,ESE,3.5,-,N/A,,Unknown,110,2012-11-10 02:00:00
3:30 AM,32.0,32.0,100,29.92,5.0,East,5.8,-,N/A,,Unknown,90,2012-11-10 02:30:00
4:00 AM,33.8,32.0,93,29.92,5.0,ESE,5.8,-,N/A,,Unknown,110,2012-11-10 03:00:00
4:30 AM,33.8,32.0,93,29.92,3.7,East,4.6,-,N/A,,Unknown,80,2012-11-10 03:30:00
5:00 AM,32.0,32.0,100,29.89,3.1,Variable,1.2,-,N/A,,Mist,0,2012-11-10 04:00:00
5:30 AM,32.0,30.2,93,29.89,3.1,Variable,2.3,-,N/A,,Mist,0,2012-11-10 04:30:00
6:00 AM,33.8,32.0,93,29.89,3.7,East,5.8,-,N/A,,Unknown,90,2012-11-10 05:00:00
6:30 AM,33.8,32.0,93,29.89,3.7,East,5.8,-,N/A,,Mist,90,2012-11-10 05:30:00
7:00 AM,34,33,93,29.94,2,East,6.7,,,,Mist,100,2012-11-10 06:00:00
7:00 AM,33.8,32.0,93,29.89,2.5,East,8.1,-,N/A,,Mist,90,2012-11-10 06:00:00
7:30 AM,35.6,33.8,93,29.89,2.5,East,5.8,-,N/A,,Mist,90,2012-11-10 06:30:00
8:00 AM,37.4,35.6,93,29.89,2.8,East,4.6,-,N/A,,Mist,80,2012-11-10 07:00:00
8:30 AM,37.4,35.6,93,29.86,3.1,East,5.8,-,N/A,,Mist,90,2012-11-10 07:30:00
9:00 AM,39.2,37.4,93,29.89,3.7,East,5.8,-,N/A,,Unknown,90,2012-11-10 08:00:00
9:30 AM,39.2,37.4,93,29.86,3.7,East,5.8,-,N/A,,Unknown,90,2012-11-10 08:30:00
10:00 AM,39.2,35.6,87,29.86,4.3,East,5.8,-,N/A,,Unknown,90,2012-11-10 09:00:00
10:30 AM,41.0,37.4,87,29.86,5.0,ESE,6.9,-,N/A,,Unknown,110,2012-11-10 09:30:00
11:00 AM,41.0,37.4,87,29.86,5.0,ESE,5.8,-,N/A,,Unknown,110,2012-11-10 10:00:00
11:30 AM,44.6,39.2,81,29.83,5.6,East,9.2,-,N/A,,Partly Cloudy,100,2012-11-10 10:30:00
12:00 PM,46.4,37.4,71,29.83,6.2,ESE,9.2,-,N/A,,Partly Cloudy,110,2012-11-10 11:00:00
12:30 PM,46.4,37.4,71,29.83,6.2,ESE,6.9,-,N/A,,Partly Cloudy,120,2012-11-10 11:30:00
1:00 PM,46,39,67,29.83,7,SE,8.9,,,,Mostly Cloudy,130,2012-11-10 12:00:00
1:00 PM,46.4,39.2,76,29.80,-9999.0,ESE,6.9,-,N/A,,Clear,120,2012-11-10 12:00:00
1:30 PM,46.4,39.2,76,29.77,-9999.0,East,10.4,-,N/A,,Clear,90,2012-11-10 12:30:00
2:00 PM,46.4,39.2,76,29.77,-9999.0,ESE,9.2,-,N/A,,Clear,120,2012-11-10 13:00:00
2:30 PM,46.4,39.2,76,29.77,-9999.0,East,10.4,-,N/A,,Clear,90,2012-11-10 13:30:00
3:00 PM,46.4,39.2,76,29.77,-9999.0,ESE,10.4,-,N/A,,Clear,110,2012-11-10 14:00:00
3:30 PM,46.4,39.2,76,29.77,-9999.0,ESE,12.7,-,N/A,,Clear,120,2012-11-10 14:30:00
4:00 PM,44.6,39.2,81,29.77,-9999.0,ESE,8.1,-,N/A,,Clear,110,2012-11-10 15:00:00
4:30 PM,42.8,37.4,81,29.77,-9999.0,East,5.8,-,N/A,,Clear,100,2012-11-10 15:30:00
5:00 PM,42.8,37.4,81,29.77,-9999.0,East,6.9,-,N/A,,Clear,100,2012-11-10 16:00:00
5:30 PM,41.0,37.4,87,29.77,-9999.0,ESE,9.2,-,N/A,,Clear,120,2012-11-10 16:30:00
6:00 PM,39.2,37.4,93,29.77,-9999.0,ESE,6.9,-,N/A,,Clear,120,2012-11-10 17:00:00
6:30 PM,41.0,37.4,87,29.77,-9999.0,SE,6.9,-,N/A,,Clear,130,2012-11-10 17:30:00
7:00 PM,40,37,86,29.81,6,ESE,4.5,,,,Clear,120,2012-11-10 18:00:00
7:00 PM,41.0,37.4,87,29.77,-9999.0,SE,4.6,-,N/A,,Clear,130,2012-11-10 18:00:00
7:30 PM,39.2,35.6,87,29.77,5.6,ESE,5.8,-,N/A,,Unknown,120,2012-11-10 18:30:00
8:00 PM,39.2,37.4,93,29.77,5.6,East,4.6,-,N/A,,Unknown,100,2012-11-10 19:00:00
8:30 PM,39.2,35.6,87,29.74,5.0,East,6.9,-,N/A,,Unknown,100,2012-11-10 19:30:00
9:00 PM,37.4,35.6,93,29.74,4.3,ESE,3.5,-,N/A,,Unknown,110,2012-11-10 20:00:00
9:30 PM,39.2,37.4,93,29.77,4.3,ESE,2.3,-,N/A,,Unknown,120,2012-11-10 20:30:00
10:00 PM,37.4,35.6,93,29.74,4.3,ESE,4.6,-,N/A,,Unknown,120,2012-11-10 21:00:00
10:30 PM,37.4,37.4,100,29.74,4.3,SSE,5.8,-,N/A,,Unknown,150,2012-11-10 21:30:00
11:00 PM,37.4,37.4,100,29.74,4.3,ESE,5.8,-,N/A,,Unknown,110,2012-11-10 22:00:00
11:30 PM,37.4,35.6,93,29.74,4.3,ESE,4.6,-,N/A,,Unknown,120,2012-11-10 22:30:00